Location: Antioch Baptist Church
(32.6696°N, 85.7327°W)
Time: 20:59:28
(UTC+00:00)

Cosmos 1975 - Pass Details

Date: 14 July 2020
Orbit: 542 x 561 km, 82.5° (Epoch: 13 August)

Event Time Altitude Azimuth Distance (km) Brightness Sun altitude
Exits shadow 08:33:31 27° 132° (SE) 1,069 4.2 -23.0°
Maximum altitude 08:34:53 35° 92° (E) 893 4.2 -22.8°
Drops below altitude 10° 08:38:31 10° 26° (NNE) 1,813 6.5 -22.3°
Sets 08:40:48 0° 17° (NNE) 2,708 7.4 -22.0°
